www.pogodaiklimat.ru

Погода и климат >> Архив погоды >> Канада >> Rankin Inlet


ПОГОДА в Rankin Inlet

  • Прогноз погоды в Rankin Inlet
  • Монитор погоды в Rankin Inlet
  • Климат города

АРХИВ ПОГОДЫ в Rankin Inlet

Время (UTC), дата Ветер
(напр.,м/с)
 
Видим.   Явления Облачность Т
(С)
Тd
(С)
f
(%)
Тe
(С)
Тes
(С)
Комфортность P
(гПа)
Po
(гПа)
Тmin
(С)
Tmax
(С)
R
(мм)
R24
(мм)
S
(см)
06 18.09 Ю 8 24 км {ливн. осадки} 9/9 1500 м
[Sc]
+4.2 -1.2 68 -2 -2 1013.7 1009.6 +1.0 +4.6 0.2 181
09 18.09 ЮЗ 10 24 км 9/0 2000 м
[]
+4.7 -0.2 71 -2 -2 1011.6 1007.5
12 18.09 Ю 11 24 км 9/0
[Ac As]
+4.4 +1.2 80 -2 -2 1010.0 1005.9 +2.8 +4.6
15 18.09 Ю 12 24 км 10/0 2000 м
[]
+5.2 +1.4 76 -2 -2 1008.3 1004.2
18 18.09 Ю 12 16 км 10/1 300 м
[Sc Ac trans Cs]
+5.4 +1.5 76 -1 -1 1006.2 1002.1 +2.8 +5.5
21 18.09 СЗ 9 1600 м 10/10 300 м
[]
+0.8 -0.7 90 -7 -7 1006.0 1001.9
00 19.09 СЗ 10 9000 м слабый снег {дождь} 9/9 300 м
[St]
-1.4 -3.0 89 -10 -10 1009.3 1005.2 -1.5 +5.6 0.2
03 19.09 СЗ 6 24 км 1/1 600 м
[]
-4.0 -7.5 77 -11 -11 1011.5 1007.3
06 19.09 З 7 24 км {снег} ясно -2.7 -6.9 73 -10 -10 1012.0 1007.8 -4.1 +5.6 0.0 182
09 19.09 З 6 24 км 1/1 1000 м
[]
-2.5 -5.4 80 -10 -10 1012.0 1007.8
12 19.09 З 5 24 км 3/1 300 м
[Sc Ac As]
-2.9 -4.9 86 -10 -10 1011.8 1007.6 -4.1 +5.6
15 19.09 З 5 24 км 8/8 300 м
[]
-1.6 -4.3 82 -8 -8 1012.2 1008.0
18 19.09 З 8 45 км {ливн. осадки} 5/3 600 м
[Cu hum Ci fib]
-0.5 -10.0 49 -8 -7 1012.6 1008.4 -4.1 -0.3 0.2 <0.5
21 19.09 З 8 45 км 5/5 1000 м
[]
-0.6 -10.0 49 -7 -7 1013.2 1009.0
00 20.09 З 6 24 км 9/8 1000 м
[Sc Ci fib]
-0.9 -10.1 50 -7 -7 1013.7 1009.5 -3.0 +0.3
03 20.09 З 7 24 км 8/8 1000 м
[]
-1.2 -9.7 52 -8 -8 1013.4 1009.2
06 20.09 ЮЗ 8 24 км 4/4 1500 м
[]
-1.3 -7.7 62 -9 -9 1012.7 1008.5 -3.0 +0.3 181
09 20.09 ЮЗ 7 24 км 3/3 1500 м
[]
-1.9 -5.9 74 -9 -9 1011.7 1007.5
12 20.09 ЮЗ 8 24 км 6/1 600 м
[Sc Ac As Ci fib]
-1.9 -6.4 71 -10 -10 1010.8 1006.6 -2.0 +0.3
15 20.09 ЮЗ 7 45 км 9/9 300 м
[]
-0.1 -5.4 67 -7 -7 1010.0 1005.8
18 20.09 ЮЗ 8 45 км слабый ливневой снег 9/6 600 м
[Sc diur, vesp Ci fib]
+1.4 -6.0 58 -5 -5 1009.0 1004.8 -2.0 +1.4 0.0
21 20.09 ЮЗ 6 24 км 9/9 1000 м
[]
+1.4 -8.2 49 -4 -4 1007.8 1003.7
00 21.09 Ю 7 24 км в посл. час ливневой снег 9/4 1000 м
[Sc diur, vesp Ac As]
-0.3 -3.1 81 -7 -7 1006.6 1002.4 -2.0 +1.9 0.2
03 21.09 З 5 3200 м 8/8 100 м
[]
-1.3 -2.5 92 -8 -8 1004.1 1000.0
06 21.09 ЮЗ 5 24 км {ливн. осадки} 9/9 200 м
[Sc]
-2.4 -5.1 82 -9 -9 1003.5 999.4 -2.4 +1.9 0.6 221
09 21.09 В 2 24 км 10/10 600 м
[]
-2.1 -6.4 72 -6 -6 1002.7 998.6
12 21.09 С 5 24 км 9/4 600 м
[Sc Ac As]
-2.8 -4.3 89 -10 -10 1002.5 998.4 -4.4 +1.9 <0.5
15 21.09 СВ 6 24 км 9/9 100 м
[]
-1.9 -3.9 86 -9 -9 1003.1 999.0
18 21.09 13 1600 м слабый ливневой снег н/о -0.7 -1.9 92 -11 -11 1003.4 999.3 -4.4 -0.7 2 2
21 21.09 С 17 4000 м 8/8 100 м
[]
-0.7 -2.4 88 -11 -11 1004.5 1000.4
00 22.09 С 12 9000 м слабый ливневой снег 10/10 200 м
[Sc]
-1.4 -3.0 89 -11 -11 1008.4 1004.2 -4.4 -0.1 0.8 1
03 22.09 С 12 24 км 6/6 600 м
[]
-3.2 -6.1 80 -13 -13 1010.5 1006.3
06 22.09 С 9 24 км {ливн. осадки} 5/1 600 м
[Sc Ac As Ci fib]
-5.4 -7.5 85 -15 -15 1010.8 1006.6 -5.4 -0.1 0.2 223
09 22.09 С 10 24 км 6/6 300 м
[]
-3.1 -5.3 85 -12 -12 1010.7 1006.5
12 22.09 С 11 24 км 9/9 300 м
[Sc]
-2.6 -5.7 79 -12 -12 1011.2 1007.0 -5.5 -0.1 3
15 22.09 11 24 км 9/9 300 м
[]
-3.2 -6.5 78 1013.1 1008.9
18 22.09 С 11 24 км 6/4 600 м
[Sc Ci fib]
-1.1 -4.8 76 -10 -10 1014.1 1009.9 -5.5 -1.1
21 22.09 СЗ 12 24 км 4/4 600 м
[]
-0.5 -3.3 81 -9 -9 1015.4 1011.2
00 23.09 СЗ 8 24 км слабый снег 9/9 300 м
[Sc]
-2.1 -4.7 82 -10 -10 1018.2 1014.0 -5.5 +0.2 0.0 1
03 23.09 СЗ 6 24 км 9/9 300 м
[]
-2.0 -5.4 78 -9 -9 1019.2 1015.0
06 23.09 З 4 24 км {снег} 4/3 300 м
[Sc Ac As]
-2.7 -6.7 74 -9 -9 1019.0 1014.8 -5.5 +0.2 0.0 211
09 23.09 З 7 24 км 5/5 300 м
[]
-1.4 -3.8 84 -9 -9 1018.7 1014.5
12 23.09 З 6 24 км 8/1 300 м
[Sc Ac As]
-1.8 -4.0 85 -9 -9 1018.3 1014.1 -2.9 +0.2 1
15 23.09 З 8 45 км 8/8 300 м
[]
+0.1 -3.6 76 -7 -7 1017.4 1013.2
18 23.09 ЮЗ 9 45 км 9/1 1000 м
[Sc Ac As Ci fib]
+2.1 -4.6 61 -5 -4 1016.0 1011.8 -2.9 +2.2
21 23.09 ЮЗ 8 24 км 6/0
[]
+4.0 -2.1 64 -2 -2 1014.7 1010.5
00 24.09 ЮЗ 6 24 км 5/0
[Ac trans Ci fib]
+3.7 -0.8 72 -2 -2 1013.8 1009.6 -2.9 +4.7
03 24.09 ЮЗ 9 24 км 4/0
[]
+3.0 -0.1 80 -4 -4 1012.8 1008.6
06 24.09 З 8 24 км 5/0
[Ci fib]
+2.9 -2.4 68 -3 -3 1012.4 1008.3 -2.9 +4.7 191
09 24.09 ЮЗ 8 24 км 4/0
[]
+2.6 -2.4 70 -4 -4 1012.2 1008.1
12 24.09 ЮЗ 7 45 км 4/0
[Ci fib]
+1.1 -2.3 78 -6 -6 1011.9 1007.8 +1.1 +4.7 1
15 24.09 ЮЗ 7 45 км 4/0
[]
+2.1 -1.8 75 -4 -4 1011.7 1007.6
18 24.09 ЮЗ 9 24 км 3/0
[Ac As Ci fib]
+5.6 -1.3 61 0 +1 1010.9 1006.8 +1.0 +5.6
21 24.09 ЮЗ 9 24 км 9/0
[]
+6.2 -0.6 62 +1 +1 1010.1 1006.0
00 25.09 ЮЗ 7 24 км 8/0
[Ac As Ci fib]
+4.1 -0.1 74 -2 -2 1010.6 1006.5 +1.0 +6.7
03 25.09 ЮЗ 7 24 км 6/0
[]
+2.7 0.0 82 -3 -3 1010.3 1006.2

 

Местоположение метеостанции Rankin Inlet (Канада): широта 62.82 долгота -92.11 высота над уровнем моря 31 м.

В архиве по умолчанию представлена погода в Rankin Inlet за последнюю неделю. Архивные данные за месяц целиком и за предыдущие месяцы, начиная с января 2011 года, Вы можете получить, выбрав интересующий диапазон дат из раскрывающегося списка и нажав кнопку "Ввод!".


*Определитесь, кто Вы:
робот инопланетянин человек

Внимание! Время в таблицах - всемирное. Для получения местного времени необходимо прибавить поправку, которая в Rankin Inlet равна -6 ч.

Смотрите также архив погоды в соседних городах и на ближайших метеорологических станциях:

Погода в Arviat Climate (Канада) (217 км)
Погода в Arviat (Канада) (217 км)
Погода в Arviat Airport (Канада) (218 км)
Погода в Baker Lake Climate (Канада) (255 км)
Погода в Baker Lake Airport (Канада) (256 км)
Погода в Wager Bay (Канада) (364 км)
Погода в Back River MAPS (Канада) (419 км)
Погода в Coral Harbour Arpt (Канада) (460 км)
Погода в Churchill Climate (Канада) (468 км)
Погода в Dubawnt Lake (Канада) (486 км)

Пояснения к столбцам:

Ветер - указаны скорость ветра в м/с - средняя за 10 мин, порывы в срок и между сроками (в фигурных скобках) и направление, откуда дует ветер: С - северный, СВ - северо-восточный, В - восточный, ЮВ - юго-восточный, Ю - южный, ЮЗ - юго-западный, З - западный, СЗ - северо-западный.
Видимость - горизонтальная дальность видимости в метрах или километрах. При видимости от 1 до 10 км при отсутствии осадков обычно наблюдается дымка, при ухудшении видимости до 1 км и менее - туман. В сухую погоду видимость может ухудшаться дымом, пылью или мглою.
Явления - указаны атмосферные явления, наблюдавшиеся в срок или в последний час перед сроком; фигурными скобками обозначены явления, наблюдавшиеся между сроками (за 1-3 часа до срока); квадратными скобками обозначены град или гололедные отложения с указанием их диаметра в мм.
Облачность - указаны через наклонную черту общая и нижняя облачность в баллах и высота нижней границы облаков в метрах; квадратными скобками обозначены формы облаков: Ci - перистые, Cs - перисто-слоистые, Cc - перисто-кучевые, Ac - высококучевые, As - высокослоистые, Sc - слоисто-кучевые, Ns - слоисто-дождевые, Cu - кучевые, Cb - кучево-дождевые. Подробнее классификацию облаков см. в Атласе облаков (PDF).
T - Температура воздуха - температура, измеренная на высоте 2 м над землей.
Td - Температура точки росы - температура, при понижении до которой содержащийся в воздухе водяной пар достигнет насыщения.
f - Относительная влажность воздуха - влажноcть воздуха, измеренная на высоте 2 м над землей.
Te - Эффективная температура - температура, которую ощущает одетый по сезону человек в тени. Характеристика душности погоды. При расчете учитывается влияние влажности воздуха и скорости ветра на теплоощущения человека.
Tes - Эффективная температура на солнце - температура, которую ощущает человек, с поправкой на солнечный нагрев. Характеристика знойности погоды. Зависит от высоты солнца над горизонтом, облачности и скорости ветра. Ночью, в пасмурную погоду, а также при ветре 12 м/с и более поправка равна нулю.
P - Атмосферное давление - приведенное к уровню моря атмосферное давление.
Po - Атмосферное давление - измеренное на уровне метеостанции атмосферное давление.
Tmin - Минимальная температура - минимум температуры воздуха на высоте 2 м над землей.
Tmax - Максимальная температура - максимум температуры воздуха на высоте 2 м над землей.
R - Количество осадков - Количество выпавших осадков за период времени, мм. При наведении курсора мыши на число - период времени, за который выпало указанное количество осадков.
R24 - Количество осадков - Количество выпавших осадков за 24 часа, мм.
S - Снежный покров - Высота снежного покрова, см. При наведении курсора мыши на число - состояние снежного покрова и степень покрытия местности в баллах.